Cotopaxi International Airport
SELT : now visible

Airfield :











YOU CAN JOIN US ON...

 
LOGIN :

Register | Disclaimer

   EN    FR    IT 

 









Legend :    VFR   Marginal VFR   IFR   Intensive IFR   Very Intensive IFR
Visi :
Ceiling :
>= 8 km
>= 3000ft
5 to 8 km
1000 to 3000 ft
1500m to 5 km
500 to 1000 ft
800 to 1500m
200 to 500 ft
< 800m
< 200 ft
Symbols :   Thunderstorms  Fog  Heavy snow  Heavy precipitations  Wind > 20 kt






- Airport Elevation : 9205 ft
- IATA code : LTX


SELT - Cotopaxi International

CURRENT METAR :
  • 072300Z 18019KT 9999 FEW030 11/06 Q1030

EXPIRED METARs :
  • 072200Z 17022KT 9999 SCT030 12/06 Q1030
  • 072100Z 17023KT 9999 BKN030 13/06 Q1029

TAF SELT
Valid from the 08 at 00:00 until the 09 at 00:00 UTC


072220Z 0800/0824 18012KT 9999 FEW030 SCT100
BECMG 0804/0806 SCT020
BECMG 0812/0814 18012KT BKN023
BECMG 0817/0819 17020KT TX14/0818Z TN08/0811Z
SEGU FIR / South America



MET'MAP, your aeronautical weather chart ! - Copyright ORBIFLY December 2007 - Disclaimer

ORBIFLY MET'MAP TEAM :

Programming & Development : Alexandra Zaïnal
Concept & original design : Baudouin d'Aumeries
Assistance for programming : Marc-Olivier Méhu
Technical & hardware support : Manuel Goepfert

Contact : metmap@orbifly.com




SOURCES & CREDITS :

   NOAA       Earth
Advisory